Location: Unspecified
(51.6250°N, 0.8230°E)
Time: 06:30:29
(UTC+00:00)

ISS - Pass Details

Date: 28 January 2021
Orbit: 417 x 422 km, 51.6° (Epoch: 02 March)

Event Time Altitude Azimuth Distance (km) Brightness Sun altitude
Rises 19:22:44 0° 281° (W) 2,377 1.4 -25.3°
Reaches altitude 10° 19:24:51 10° 279° (W) 1,511 0.1 -25.6°
Enters shadow 19:26:43 30° 272° (W) 788 -1.8 -25.9°
